| time (UTC) | temp F | wind direction | speed knots | gust knots | rain 1hr in | rain 24hr in | rain mn in | humidity % | barometer mb |
| 20260904204515 | 92 | 0.0 | 0.0 | 0.00 | 0.00 | 0.00 | 74 | 1012.5 | |
| 20260904203516 | 94 | 0.0 | 0.9 | 0.00 | 0.00 | 0.00 | 69 | 1012.6 | |
| 20260904202516 | 96 | 0.0 | 0.9 | 0.00 | 0.00 | 0.00 | 63 | 1012.4 | |
| 20260904201535 | 95 | 0.0 | 0.0 | 0.00 | 0.00 | 0.00 | 69 | 1012.2 | |
| 20260904200515 | 94 | 0.0 | 0.9 | 0.00 | 0.00 | 0.00 | 68 | 1012.5 | |
| 20260904195515 | 93 | 0.0 | 0.0 | 0.00 | 0.00 | 0.00 | 72 | 1012.8 | |
| 20260904194515 | 95 | 0.0 | 0.9 | 0.00 | 0.00 | 0.00 | 68 | 1013.2 | |
| 20260904193515 | 98 | 0.0 | 0.9 | 0.00 | 0.00 | 0.00 | 63 | 1013.2 | |
| 20260904192515 | 98 | 270 | 0.9 | 3.5 | 0.00 | 0.00 | 0.00 | 59 | 1013.3 |
| 20260904191515 | 97 | 0.0 | 0.9 | 0.00 | 0.00 | 0.00 | 64 | 1013.4 | |
| 20260904190535 | 97 | 0.0 | 1.7 | 0.00 | 0.00 | 0.00 | 64 | 1013.5 | |
| 20260904185515 | 98 | 23 | 0.9 | 2.6 | 0.00 | 0.00 | 0.00 | 62 | 1013.7 |
| 20260904184516 | 97 | 270 | 0.9 | 1.7 | 0.00 | 0.00 | 0.00 | 59 | 1014.0 |
| 20260904183515 | 96 | 270 | 0.9 | 4.3 | 0.00 | 0.00 | 0.00 | 62 | 1014.3 |
| 20260904182515 | 95 | 45 | 0.9 | 1.7 | 0.00 | 0.00 | 0.00 | 67 | 1014.4 |
| 20260904181515 | 96 | 0.0 | 0.9 | 0.00 | 0.00 | 0.00 | 67 | 1014.5 | |
| 20260904180515 | 96 | 23 | 0.9 | 1.7 | 0.00 | 0.00 | 0.00 | 66 | 1014.7 |
| 20260904175515 | 96 | 0.0 | 0.9 | 0.00 | 0.00 | 0.00 | 66 | 1014.8 | |
| 20260904174516 | 96 | 0.0 | 1.7 | 0.00 | 0.00 | 0.00 | 65 | 1014.9 | |
| 20260904173515 | 97 | 0.0 | 0.9 | 0.00 | 0.00 | 0.00 | 64 | 1015.0 | |
| 20260904172515 | 96 | 0.0 | 0.9 | 0.00 | 0.00 | 0.00 | 66 | 1015.2 | |
| 20260904171536 | 95 | 23 | 0.9 | 3.5 | 0.00 | 0.00 | 0.00 | 63 | 1015.1 |
| 20260904170515 | 96 | 0.0 | 0.9 | 0.00 | 0.00 | 0.00 | 63 | 1015.0 | |
| 20260904165515 | 96 | 0.0 | 3.5 | 0.00 | 0.00 | 0.00 | 63 | 1015.1 | |
| 20260904164515 | 94 | 45 | 0.9 | 2.6 | 0.00 | 0.00 | 0.00 | 65 | 1015.2 |
| 20260904163515 | 95 | 0.0 | 0.9 | 0.00 | 0.00 | 0.00 | 68 | 1015.2 | |
| 20260904162517 | 94 | 0.0 | 1.7 | 0.00 | 0.00 | 0.00 | 69 | 1015.3 | |
| 20260904161515 | 93 | 0.0 | 0.9 | 0.00 | 0.00 | 0.00 | 70 | 1015.3 | |
| 20260904160515 | 94 | 45 | 0.9 | 1.7 | 0.00 | 0.00 | 0.00 | 69 | 1015.4 |
| 20260904155515 | 94 | 0.0 | 0.9 | 0.00 | 0.00 | 0.00 | 69 | 1015.6 | |
| 20260904154515 | 93 | 45 | 0.9 | 1.7 | 0.00 | 0.00 | 0.00 | 69 | 1015.8 |
| 20260904153515 | 93 | 315 | 0.9 | 2.6 | 0.00 | 0.00 | 0.00 | 70 | 1015.7 |
| 20260904152535 | 93 | 0.0 | 1.7 | 0.00 | 0.00 | 0.00 | 71 | 1015.5 | |
| 20260904151517 | 92 | 68 | 0.9 | 1.7 | 0.00 | 0.00 | 0.00 | 71 | 1015.6 |
| 20260904150517 | 93 | 270 | 1.7 | 4.3 | 0.00 | 0.00 | 0.00 | 68 | 1015.5 |
| 20260904145515 | 93 | 248 | 0.9 | 1.7 | 0.00 | 0.00 | 0.00 | 70 | 1015.5 |
| 20260904144517 | 93 | 0.0 | 1.7 | 0.00 | 0.00 | 0.00 | 73 | 1015.5 | |
| 20260904143517 | 92 | 0.0 | 1.7 | 0.00 | 0.00 | 0.00 | 72 | 1015.4 | |
| 20260904142517 | 91 | 293 | 0.9 | 3.5 | 0.00 | 0.00 | 0.00 | 73 | 1015.3 |
| 20260904141517 | 90 | 293 | 0.9 | 2.6 | 0.00 | 0.00 | 0.00 | 75 | 1015.3 |
| 20260904140537 | 90 | 0.0 | 1.7 | 0.00 | 0.00 | 0.00 | 75 | 1015.2 | |
| 20260904135517 | 89 | 0.0 | 1.7 | 0.00 | 0.00 | 0.00 | 77 | 1015.4 | |
| 20260904134517 | 88 | 0.0 | 1.7 | 0.00 | 0.00 | 0.00 | 77 | 1015.2 | |
| 20260904133517 | 87 | 0.0 | 0.0 | 0.00 | 0.00 | 0.00 | 80 | 1015.2 | |
| 20260904132517 | 86 | 0.0 | 0.9 | 0.00 | 0.00 | 0.00 | 80 | 1015.1 | |
| 20260904131538 | 84 | 270 | 0.9 | 2.6 | 0.00 | 0.00 | 0.00 | 82 | 1015.2 |
| 20260904130517 | 83 | 0.0 | 2.6 | 0.00 | 0.00 | 0.00 | 85 | 1015.1 | |
| 20260904125517 | 81 | 248 | 0.9 | 5.2 | 0.00 | 0.00 | 0.00 | 87 | 1015.1 |
| 20260904124517 | 80 | 270 | 0.9 | 4.3 | 0.00 | 0.00 | 0.00 | 89 | 1015.3 |
| 20260904123517 | 79 | 0.0 | 0.9 | 0.00 | 0.00 | 0.00 | 91 | 1015.2 | |
| 20260904122517 | 78 | 248 | 1.7 | 5.2 | 0.00 | 0.00 | 0.00 | 92 | 1015.1 |
| 20260904121516 | 76 | 248 | 0.9 | 3.5 | 0.00 | 0.00 | 0.00 | 97 | 1015.2 |
| 20260904120537 | 74 | 0.0 | 0.9 | 0.00 | 0.00 | 0.00 | 100 | 1015.2 | |
| 20260904115517 | 72 | 0.0 | 0.0 | 0.00 | 0.00 | 0.00 | 100 | 1015.1 | |
| 20260904114517 | 72 | 0.0 | 0.0 | 0.00 | 0.00 | 0.00 | 99 | 1014.9 | |
| 20260904113517 | 72 | 0.0 | 0.0 | 0.00 | 0.00 | 0.00 | 99 | 1014.9 | |
| 20260904112517 | 71 | 0.0 | 0.0 | 0.00 | 0.00 | 0.00 | 99 | 1015.0 | |
| 20260904111517 | 71 | 0.0 | 0.0 | 0.00 | 0.00 | 0.00 | 99 | 1015.1 | |
| 20260904110516 | 71 | 0.0 | 0.0 | 0.00 | 0.00 | 0.00 | 99 | 1015.0 | |
| 20260904105517 | 71 | 0.0 | 0.0 | 0.00 | 0.00 | 0.00 | 99 | 1014.9 | |
| 20260904104537 | 72 | 0.0 | 0.0 | 0.00 | 0.00 | 0.00 | 99 | 1015.0 | |
| 20260904103557 | 72 | 0.0 | 0.0 | 0.00 | 0.00 | 0.00 | 98 | 1014.8 | |
| 20260904102517 | 72 | 0.0 | 0.0 | 0.00 | 0.00 | 0.00 | 98 | 1014.9 | |
| 20260904101517 | 72 | 0.0 | 0.0 | 0.00 | 0.00 | 0.00 | 98 | 1014.9 | |
| 20260904100517 | 72 | 0.0 | 0.0 | 0.00 | 0.00 | 0.00 | 98 | 1014.8 | |
| 20260904095517 | 72 | 0.0 | 0.0 | 0.00 | 0.00 | 0.00 | 98 | 1015.0 | |
| 20260904094517 | 72 | 0.0 | 0.0 | 0.00 | 0.00 | 0.00 | 98 | 1015.0 | |
| 20260904093517 | 73 | 0.0 | 0.0 | 0.00 | 0.00 | 0.00 | 98 | 1015.1 | |
| 20260904092516 | 73 | 0.0 | 0.0 | 0.00 | 0.00 | 0.00 | 98 | 1015.2 | |
| 20260904091517 | 73 | 0.0 | 0.0 | 0.00 | 0.00 | 0.00 | 97 | 1015.1 | |
| 20260904090516 | 73 | 0.0 | 0.0 | 0.00 | 0.00 | 0.00 | 97 | 1015.2 | |
| 20260904085517 | 74 | 0.0 | 0.0 | 0.00 | 0.00 | 0.00 | 97 | 1015.2 | |
| 20260904084518 | 74 | 0.0 | 0.0 | 0.00 | 0.00 | 0.00 | 97 | 1015.3 | |
| 20260904083517 | 74 | 0.0 | 0.0 | 0.00 | 0.00 | 0.00 | 96 | 1015.2 | |
| 20260904082517 | 74 | 0.0 | 0.0 | 0.00 | 0.00 | 0.00 | 96 | 1015.0 | |
| 20260904081516 | 74 | 0.0 | 0.0 | 0.00 | 0.00 | 0.00 | 96 | 1014.9 | |
| 20260904080517 | 75 | 0.0 | 0.0 | 0.00 | 0.00 | 0.00 | 96 | 1014.9 | |
| 20260904075517 | 75 | 0.0 | 0.0 | 0.00 | 0.00 | 0.00 | 95 | 1014.9 | |
| 20260904074516 | 76 | 0.0 | 0.9 | 0.00 | 0.00 | 0.00 | 95 | 1014.7 | |
| 20260904073517 | 75 | 0.0 | 0.0 | 0.00 | 0.00 | 0.00 | 94 | 1014.8 | |
| 20260904072517 | 76 | 0.0 | 0.0 | 0.00 | 0.00 | 0.00 | 94 | 1014.8 | |
| 20260904071517 | 76 | 0.0 | 0.0 | 0.00 | 0.00 | 0.00 | 93 | 1014.6 | |
| 20260904070517 | 77 | 0.0 | 0.0 | 0.00 | 0.00 | 0.00 | 92 | 1014.6 | |
| 20260904065536 | 77 | 0.0 | 0.0 | 0.00 | 0.00 | 0.00 | 91 | 1014.5 | |
| 20260904064516 | 78 | 0.0 | 0.0 | 0.00 | 0.00 | 0.00 | 90 | 1014.8 | |
| 20260904063536 | 78 | 0.0 | 0.0 | 0.00 | 0.00 | 0.00 | 89 | 1014.8 | |
| 20260904062521 | 79 | 0.0 | 0.0 | 0.00 | 0.00 | 0.00 | 88 | 1014.9 | |
| 20260904061517 | 79 | 0.0 | 0.9 | 0.00 | 0.00 | 0.00 | 87 | 1014.9 | |
| 20260904060517 | 79 | 0.0 | 1.7 | 0.00 | 0.00 | 0.00 | 90 | 1015.5 | |
| 20260904055516 | 79 | 68 | 0.9 | 1.7 | 0.00 | 0.00 | 0.00 | 93 | 1015.6 |
| 20260904054516 | 79 | 0.0 | 1.7 | 0.00 | 0.00 | 0.00 | 94 | 1015.6 | |
| 20260904053516 | 79 | 0.0 | 0.0 | 0.00 | 0.00 | 0.00 | 93 | 1015.0 | |
| 20260904052516 | 80 | 0.0 | 1.7 | 0.00 | 0.00 | 0.00 | 91 | 1014.8 | |
| 20260904051517 | 79 | 0.0 | 0.9 | 0.00 | 0.00 | 0.00 | 91 | 1014.8 | |
| 20260904050517 | 78 | 0.0 | 0.9 | 0.00 | 0.00 | 0.00 | 95 | 1015.0 | |
| 20260904045516 | 78 | 0.0 | 0.0 | 0.00 | 0.00 | 0.00 | 96 | 1015.2 | |
| 20260904044517 | 78 | 0.0 | 0.0 | 0.00 | 0.00 | 0.00 | 96 | 1015.1 | |
| 20260904043516 | 78 | 0.0 | 0.0 | 0.00 | 0.00 | 0.00 | 96 | 1015.1 | |
| 20260904042516 | 78 | 0.0 | 0.0 | 0.00 | 0.00 | 0.00 | 97 | 1015.2 | |
| 20260904041517 | 78 | 0.0 | 0.0 | 0.00 | 0.00 | 0.00 | 97 | 1015.1 | |
| 20260904040516 | 78 | 0.0 | 0.0 | 0.00 | 0.00 | 0.00 | 98 | 1015.2 | |
| 20260904035516 | 78 | 0.0 | 0.0 | 0.00 | 0.00 | 0.00 | 98 | 1015.2 | |
| 20260904034516 | 78 | 0.0 | 0.0 | 0.00 | 0.00 | 0.00 | 99 | 1015.3 | |
| 20260904033516 | 78 | 0.0 | 0.0 | 0.00 | 0.00 | 0.00 | 99 | 1015.3 | |
| 20260904032516 | 78 | 0.0 | 0.0 | 0.00 | 0.00 | 0.00 | 99 | 1015.5 | |
| 20260904031517 | 78 | 0.0 | 0.0 | 0.00 | 0.00 | 0.00 | 99 | 1015.4 | |
| 20260904030516 | 78 | 0.0 | 0.0 | 0.00 | 0.00 | 0.00 | 98 | 1015.3 | |
| 20260904025536 | 78 | 0.0 | 0.0 | 0.00 | 0.00 | 0.00 | 98 | 1015.3 | |
| 20260904024537 | 78 | 0.0 | 0.0 | 0.00 | 0.00 | 0.00 | 98 | 1015.3 | |
| 20260904023516 | 78 | 0.0 | 0.0 | 0.00 | 0.00 | 0.00 | 98 | 1015.3 | |
| 20260904022516 | 79 | 0.0 | 0.0 | 0.00 | 0.00 | 0.00 | 98 | 1015.3 | |
| 20260904021516 | 79 | 0.0 | 0.0 | 0.00 | 0.00 | 0.00 | 98 | 1015.1 | |
| 20260904020516 | 79 | 0.0 | 0.0 | 0.00 | 0.00 | 0.00 | 98 | 1015.2 | |
| 20260904015517 | 79 | 0.0 | 0.0 | 0.00 | 0.00 | 0.00 | 98 | 1015.3 | |
| 20260904014516 | 79 | 0.0 | 0.0 | 0.00 | 0.00 | 0.00 | 97 | 1015.5 | |
| 20260904013516 | 80 | 0.0 | 0.0 | 0.00 | 0.00 | 0.00 | 97 | 1015.7 | |
| 20260904012516 | 80 | 0.0 | 0.0 | 0.00 | 0.00 | 0.00 | 97 | 1015.6 | |
| 20260904011516 | 80 | 0.0 | 0.0 | 0.00 | 0.00 | 0.00 | 97 | 1015.8 | |
| 20260904010516 | 80 | 0.0 | 0.0 | 0.00 | 0.00 | 0.00 | 96 | 1015.7 | |
| 20260904005536 | 81 | 0.0 | 0.0 | 0.00 | 0.00 | 0.00 | 96 | 1015.9 | |
| 20260904004516 | 81 | 0.0 | 0.0 | 0.00 | 0.00 | 0.00 | 96 | 1015.9 | |
| 20260904003516 | 81 | 0.0 | 0.0 | 0.00 | 0.00 | 0.00 | 96 | 1015.9 | |
| 20260904002516 | 81 | 0.0 | 0.0 | 0.00 | 0.00 | 0.00 | 95 | 1015.8 | |
| 20260904001516 | 82 | 0.0 | 0.0 | 0.00 | 0.00 | 0.00 | 95 | 1015.6 | |
| 20260904000516 | 82 | 0.0 | 0.0 | 0.00 | 0.00 | 0.00 | 94 | 1015.5 | |
| 20260903235516 | 83 | 0.0 | 0.0 | 0.00 | 0.00 | 0.00 | 94 | 1015.2 | |
| 20260903234516 | 83 | 0.0 | 0.0 | 0.00 | 0.00 | 0.00 | 93 | 1015.0 | |
| 20260903233516 | 84 | 0.0 | 0.0 | 0.00 | 0.00 | 0.00 | 93 | 1015.0 | |
| 20260903232536 | 84 | 0.0 | 0.0 | 0.00 | 0.00 | 0.00 | 92 | 1015.1 | |
| 20260903231516 | 85 | 0.0 | 0.0 | 0.00 | 0.00 | 0.00 | 91 | 1015.0 | |
| 20260903230515 | 85 | 0.0 | 0.0 | 0.00 | 0.00 | 0.00 | 91 | 1015.1 | |
| 20260903225516 | 86 | 0.0 | 0.0 | 0.00 | 0.00 | 0.00 | 89 | 1014.9 | |
| 20260903224515 | 86 | 0.0 | 0.0 | 0.00 | 0.00 | 0.00 | 88 | 1014.9 | |
| 20260903223535 | 86 | 0.0 | 0.0 | 0.00 | 0.00 | 0.00 | 88 | 1014.8 | |
| 20260903222516 | 86 | 0.0 | 0.0 | 0.00 | 0.00 | 0.00 | 87 | 1014.9 | |
| 20260903221516 | 87 | 0.0 | 0.0 | 0.00 | 0.00 | 0.00 | 84 | 1014.8 | |
| 20260903220556 | 88 | 0.0 | 0.0 | 0.00 | 0.00 | 0.00 | 82 | 1015.0 | |
| 20260903215515 | 88 | 0.0 | 0.0 | 0.00 | 0.00 | 0.00 | 81 | 1015.1 | |
| 20260903214516 | 89 | 0.0 | 0.0 | 0.00 | 0.00 | 0.00 | 80 | 1015.0 | |
| 20260903213516 | 91 | 0.0 | 0.9 | 0.00 | 0.00 | 0.00 | 77 | 1015.1 | |
| 20260903212536 | 93 | 0.0 | 0.9 | 0.00 | 0.00 | 0.00 | 75 | 1015.0 | |
| 20260903211535 | 94 | 0.0 | 0.0 | 0.00 | 0.00 | 0.00 | 71 | 1014.9 | |
| 20260903210515 | 94 | 0.0 | 0.9 | 0.00 | 0.00 | 0.00 | 69 | 1015.1 | |
| 20260903205516 | 94 | 0.0 | 0.9 | 0.00 | 0.00 | 0.00 | 73 | 1015.2 |